{"data":{"norad_id":61771,"epoch":"2026-09-22T22:25:12.958464Z","epoch_age_seconds":91703,"freshness":"FRESH","line1":"1 61771U 24199AN  26265.93417776  .00064317  00000+0  57245-3 0  9998","line2":"2 61771  97.2722 144.7619 0002592 283.1587  76.9386 15.68292890149695","mean_motion":15.6829289,"eccentricity":0.0002592,"inclination_deg":97.2722,"raan_deg":144.7619,"arg_perigee_deg":283.1587,"mean_anomaly_deg":76.9386,"bstar":0.00057245,"rev_number":14969,"period_min":91.8195835218,"perigee_km":362.03752388886,"apogee_km":365.53253626925,"semimajor_km":6741.9220300791,"source":"CELESTRAK","updated_at":"2026-09-23T09:00:21.034104Z"}}